Time,TemperatureF,DewpointF,PressureIn,WindDirection,WindDirectionDegrees,WindSpeedMPH,WindSpeedGustMPH,Humidity,HourlyPrecipIn,Conditions,Clouds,dailyrainin,SoftwareType,DateUTC
2013-05-28 00:02:00,51.0,38.0,-100.00,SE,140,1.0,2.0,60,0.00,,,-99.99,,2013-05-28 05:02:00,
2013-05-28 00:12:00,51.0,38.0,-100.00,SE,140,1.0,2.0,60,0.00,,,-99.99,,2013-05-28 05:12:00,
2013-05-28 00:22:00,51.0,38.0,-100.00,SE,140,1.0,2.0,60,0.00,,,-99.99,,2013-05-28 05:22:00,
2013-05-28 00:33:00,51.0,38.0,-100.00,SE,140,1.0,2.0,60,0.00,,,-99.99,,2013-05-28 05:33:00,
2013-05-28 00:42:00,51.0,38.0,-100.00,SE,140,1.0,2.0,60,0.00,,,-99.99,,2013-05-28 05:42:00,
2013-05-28 01:02:00,52.0,37.0,-100.00,East,95,2.0,3.0,58,0.00,,,-99.99,,2013-05-28 06:02:00,
2013-05-28 01:12:00,52.0,37.0,-100.00,East,95,2.0,3.0,58,0.00,,,-99.99,,2013-05-28 06:12:00,
2013-05-28 01:21:00,52.0,37.0,-100.00,East,95,2.0,3.0,58,0.00,,,-99.99,,2013-05-28 06:21:00,
2013-05-28 01:32:00,52.0,37.0,-100.00,East,95,2.0,3.0,58,0.00,,,-99.99,,2013-05-28 06:32:00,
2013-05-28 01:41:00,52.0,37.0,-100.00,East,95,2.0,3.0,58,0.00,,,-99.99,,2013-05-28 06:41:00,
2013-05-28 02:01:00,52.0,39.0,-100.00,ESE,110,1.0,1.0,61,0.00,,,-99.99,,2013-05-28 07:01:00,
2013-05-28 02:11:00,52.0,39.0,-100.00,ESE,110,1.0,1.0,61,0.00,,,-99.99,,2013-05-28 07:11:00,
2013-05-28 02:21:00,52.0,39.0,-100.00,ESE,110,1.0,1.0,61,0.00,,,-99.99,,2013-05-28 07:21:00,
2013-05-28 02:32:00,52.0,39.0,-100.00,ESE,110,1.0,1.0,61,0.00,,,-99.99,,2013-05-28 07:32:00,
2013-05-28 02:42:00,53.0,39.0,-100.00,East,85,2.0,4.0,58,0.00,,,-99.99,,2013-05-28 07:42:00,
2013-05-28 03:02:00,53.0,39.0,-100.00,East,85,2.0,4.0,58,0.00,,,-99.99,,2013-05-28 08:02:00,
2013-05-28 03:12:00,53.0,39.0,-100.00,East,85,2.0,4.0,58,0.00,,,-99.99,,2013-05-28 08:12:00,
2013-05-28 03:22:00,53.0,39.0,-100.00,East,85,2.0,4.0,58,0.00,,,-99.99,,2013-05-28 08:22:00,
2013-05-28 03:32:00,53.0,39.0,-100.00,East,85,2.0,4.0,58,0.00,,,-99.99,,2013-05-28 08:32:00,
2013-05-28 03:42:00,51.0,39.0,-100.00,ESE,115,2.0,3.0,62,0.00,,,-99.99,,2013-05-28 08:42:00,
2013-05-28 04:01:00,51.0,39.0,-100.00,ESE,115,2.0,3.0,62,0.00,,,-99.99,,2013-05-28 09:01:00,
2013-05-28 04:11:00,51.0,39.0,-100.00,ESE,115,2.0,3.0,62,0.00,,,-99.99,,2013-05-28 09:11:00,
2013-05-28 04:21:00,51.0,39.0,-100.00,ESE,115,2.0,3.0,62,0.00,,,-99.99,,2013-05-28 09:21:00,
2013-05-28 04:33:00,51.0,39.0,-100.00,ESE,115,2.0,3.0,62,0.00,,,-99.99,,2013-05-28 09:33:00,
2013-05-28 04:42:00,50.0,39.0,-100.00,East,100,1.0,3.0,66,0.00,,,-99.99,,2013-05-28 09:42:00,
2013-05-28 05:03:00,50.0,39.0,-100.00,East,100,1.0,3.0,66,0.00,,,-99.99,,2013-05-28 10:03:00,
2013-05-28 05:12:00,50.0,39.0,-100.00,East,100,1.0,3.0,66,0.00,,,-99.99,,2013-05-28 10:12:00,
2013-05-28 05:23:00,50.0,39.0,-100.00,East,100,1.0,3.0,66,0.00,,,-99.99,,2013-05-28 10:23:00,
2013-05-28 05:32:00,50.0,39.0,-100.00,East,100,1.0,3.0,66,0.00,,,-99.99,,2013-05-28 10:32:00,
2013-05-28 05:42:00,50.0,40.0,-100.00,ESE,105,2.0,3.0,68,0.00,,,-99.99,,2013-05-28 10:42:00,
2013-05-28 06:02:00,50.0,40.0,-100.00,ESE,105,2.0,3.0,68,0.00,,,-99.99,,2013-05-28 11:02:00,
2013-05-28 06:11:00,50.0,40.0,-100.00,ESE,105,2.0,3.0,68,0.00,,,-99.99,,2013-05-28 11:11:00,
2013-05-28 06:22:00,50.0,40.0,-100.00,ESE,105,2.0,3.0,68,0.00,,,-99.99,,2013-05-28 11:22:00,
2013-05-28 06:32:00,50.0,40.0,-100.00,ESE,105,2.0,3.0,68,0.00,,,-99.99,,2013-05-28 11:32:00,
2013-05-28 06:42:00,52.0,41.0,-100.00,East,95,2.0,6.0,65,0.00,,,-99.99,,2013-05-28 11:42:00,
2013-05-28 07:01:00,52.0,41.0,-100.00,East,95,2.0,6.0,65,0.00,,,-99.99,,2013-05-28 12:01:00,
2013-05-28 07:11:00,52.0,41.0,-100.00,East,95,2.0,6.0,65,0.00,,,-99.99,,2013-05-28 12:11:00,
2013-05-28 07:21:00,52.0,41.0,-100.00,East,95,2.0,6.0,65,0.00,,,-99.99,,2013-05-28 12:21:00,
2013-05-28 07:32:00,52.0,41.0,-100.00,East,95,2.0,6.0,65,0.00,,,-99.99,,2013-05-28 12:32:00,
2013-05-28 07:41:00,54.0,41.0,-100.00,ESE,120,3.0,7.0,61,0.00,,,-99.99,,2013-05-28 12:41:00,
2013-05-28 08:01:00,54.0,41.0,-100.00,ESE,120,3.0,7.0,61,0.00,,,-99.99,,2013-05-28 13:01:00,
2013-05-28 08:11:00,54.0,41.0,-100.00,ESE,120,3.0,7.0,61,0.00,,,-99.99,,2013-05-28 13:11:00,
2013-05-28 08:21:00,54.0,41.0,-100.00,ESE,120,3.0,7.0,61,0.00,,,-99.99,,2013-05-28 13:21:00,
2013-05-28 08:32:00,54.0,41.0,-100.00,ESE,120,3.0,7.0,61,0.00,,,-99.99,,2013-05-28 13:32:00,
2013-05-28 09:02:00,55.0,40.0,-100.00,East,85,7.0,10.0,57,0.00,,,-99.99,,2013-05-28 14:02:00,
2013-05-28 09:11:00,55.0,40.0,-100.00,East,85,7.0,10.0,57,0.00,,,-99.99,,2013-05-28 14:11:00,
2013-05-28 09:21:00,55.0,40.0,-100.00,East,85,7.0,10.0,57,0.00,,,-99.99,,2013-05-28 14:21:00,
2013-05-28 09:32:00,55.0,40.0,-100.00,East,85,7.0,10.0,57,0.00,,,-99.99,,2013-05-28 14:32:00,
2013-05-28 09:42:00,55.0,40.0,-100.00,East,85,7.0,10.0,57,0.00,,,-99.99,,2013-05-28 14:42:00,
2013-05-28 10:01:00,56.0,39.0,-100.00,East,90,7.0,11.0,53,0.00,,,-99.99,,2013-05-28 15:01:00,
2013-05-28 10:11:00,56.0,39.0,-100.00,East,90,7.0,11.0,53,0.00,,,-99.99,,2013-05-28 15:11:00,
2013-05-28 10:21:00,56.0,39.0,-100.00,East,90,7.0,11.0,53,0.00,,,-99.99,,2013-05-28 15:21:00,
2013-05-28 10:32:00,56.0,39.0,-100.00,East,90,7.0,11.0,53,0.00,,,-99.99,,2013-05-28 15:32:00,
2013-05-28 11:03:00,58.0,40.0,-100.00,East,90,7.0,13.0,50,0.00,,,-99.99,,2013-05-28 16:03:00,
2013-05-28 11:13:00,58.0,40.0,-100.00,East,90,7.0,13.0,50,0.00,,,-99.99,,2013-05-28 16:13:00,
2013-05-28 11:22:00,58.0,40.0,-100.00,East,90,7.0,13.0,50,0.00,,,-99.99,,2013-05-28 16:22:00,
2013-05-28 11:33:00,58.0,40.0,-100.00,East,90,7.0,13.0,50,0.00,,,-99.99,,2013-05-28 16:33:00,
2013-05-28 11:42:00,58.0,40.0,-100.00,East,90,7.0,13.0,50,0.00,,,-99.99,,2013-05-28 16:42:00,
2013-05-28 12:32:00,60.0,40.0,-100.00,East,90,6.0,10.0,49,0.00,,,-99.99,,2013-05-28 17:32:00,
2013-05-28 12:42:00,60.0,40.0,-100.00,East,90,6.0,10.0,49,0.00,,,-99.99,,2013-05-28 17:42:00,
2013-05-28 13:01:00,64.0,42.0,-100.00,East,95,2.0,7.0,45,0.00,,,-99.99,,2013-05-28 18:01:00,
2013-05-28 13:11:00,64.0,42.0,-100.00,East,95,2.0,7.0,45,0.00,,,-99.99,,2013-05-28 18:11:00,
2013-05-28 13:21:00,64.0,42.0,-100.00,East,95,2.0,7.0,45,0.00,,,-99.99,,2013-05-28 18:21:00,
2013-05-28 13:32:00,64.0,42.0,-100.00,East,95,2.0,7.0,45,0.00,,,-99.99,,2013-05-28 18:32:00,
2013-05-28 13:42:00,64.0,42.0,-100.00,East,95,2.0,7.0,45,0.00,,,-99.99,,2013-05-28 18:42:00,
2013-05-28 14:01:00,65.0,42.0,-100.00,SE,125,6.0,12.0,44,0.00,,,-99.99,,2013-05-28 19:01:00,
2013-05-28 14:11:00,65.0,42.0,-100.00,SE,125,6.0,12.0,44,0.00,,,-99.99,,2013-05-28 19:11:00,
2013-05-28 14:21:00,65.0,42.0,-100.00,SE,125,6.0,12.0,44,0.00,,,-99.99,,2013-05-28 19:21:00,
2013-05-28 14:32:00,65.0,42.0,-100.00,SE,125,6.0,12.0,44,0.00,,,-99.99,,2013-05-28 19:32:00,
2013-05-28 14:41:00,65.0,42.0,-100.00,SE,125,6.0,12.0,44,0.00,,,-99.99,,2013-05-28 19:41:00,
2013-05-28 15:11:00,64.0,40.0,-100.00,ESE,105,7.0,12.0,42,0.00,,,-99.99,,2013-05-28 20:11:00,
2013-05-28 15:22:00,64.0,40.0,-100.00,ESE,105,7.0,12.0,42,0.00,,,-99.99,,2013-05-28 20:22:00,
2013-05-28 15:32:00,64.0,40.0,-100.00,ESE,105,7.0,12.0,42,0.00,,,-99.99,,2013-05-28 20:32:00,
2013-05-28 15:42:00,64.0,40.0,-100.00,ESE,105,7.0,12.0,42,0.00,,,-99.99,,2013-05-28 20:42:00,
2013-05-28 15:43:00,63.0,40.0,-100.00,SE,125,7.0,12.0,44,0.00,,,-99.99,,2013-05-28 20:43:00,
2013-05-28 16:02:00,63.0,40.0,-100.00,SE,125,7.0,12.0,44,0.00,,,-99.99,,2013-05-28 21:02:00,
2013-05-28 16:11:00,63.0,40.0,-100.00,SE,125,7.0,12.0,44,0.00,,,-99.99,,2013-05-28 21:11:00,
2013-05-28 16:21:00,63.0,40.0,-100.00,SE,125,7.0,12.0,44,0.00,,,-99.99,,2013-05-28 21:21:00,
2013-05-28 16:33:00,63.0,40.0,-100.00,SE,125,7.0,12.0,44,0.00,,,-99.99,,2013-05-28 21:33:00,
2013-05-28 17:02:00,60.0,40.0,-100.00,ESE,120,9.0,12.0,47,0.00,,,-99.99,,2013-05-28 22:02:00,
2013-05-28 17:12:00,60.0,40.0,-100.00,ESE,120,9.0,12.0,47,0.00,,,-99.99,,2013-05-28 22:12:00,
2013-05-28 17:22:00,60.0,40.0,-100.00,ESE,120,9.0,12.0,47,0.00,,,-99.99,,2013-05-28 22:22:00,
2013-05-28 17:32:00,60.0,40.0,-100.00,ESE,120,9.0,12.0,47,0.00,,,-99.99,,2013-05-28 22:32:00,
2013-05-28 17:42:00,60.0,40.0,-100.00,ESE,120,9.0,12.0,47,0.00,,,-99.99,,2013-05-28 22:42:00,
2013-05-28 18:02:00,59.0,39.0,-100.00,ESE,105,6.0,12.0,48,0.00,,,-99.99,,2013-05-28 23:02:00,
2013-05-28 18:11:00,59.0,39.0,-100.00,ESE,105,6.0,12.0,48,0.00,,,-99.99,,2013-05-28 23:11:00,
2013-05-28 18:22:00,59.0,39.0,-100.00,ESE,105,6.0,12.0,48,0.00,,,-99.99,,2013-05-28 23:22:00,
2013-05-28 18:32:00,59.0,39.0,-100.00,ESE,105,6.0,12.0,48,0.00,,,-99.99,,2013-05-28 23:32:00,
2013-05-28 18:42:00,59.0,39.0,-100.00,ESE,105,6.0,12.0,48,0.00,,,-99.99,,2013-05-28 23:42:00,
2013-05-28 19:02:00,58.0,38.0,-100.00,East,80,4.0,7.0,47,0.00,,,-99.99,,2013-05-29 00:02:00,
2013-05-28 19:11:00,58.0,38.0,-100.00,East,80,4.0,7.0,47,0.00,,,-99.99,,2013-05-29 00:11:00,
2013-05-28 19:21:00,58.0,38.0,-100.00,East,80,4.0,7.0,47,0.00,,,-99.99,,2013-05-29 00:21:00,
2013-05-28 19:32:00,58.0,38.0,-100.00,East,80,4.0,7.0,47,0.00,,,-99.99,,2013-05-29 00:32:00,
2013-05-28 19:41:00,58.0,38.0,-100.00,East,80,4.0,7.0,47,0.00,,,-99.99,,2013-05-29 00:41:00,
2013-05-28 20:01:00,57.0,37.0,-100.00,East,95,2.0,6.0,47,0.00,,,-99.99,,2013-05-29 01:01:00,
2013-05-28 20:11:00,57.0,37.0,-100.00,East,95,2.0,6.0,47,0.00,,,-99.99,,2013-05-29 01:11:00,
2013-05-28 20:22:00,57.0,37.0,-100.00,East,95,2.0,6.0,47,0.00,,,-99.99,,2013-05-29 01:22:00,
2013-05-28 20:32:00,57.0,37.0,-100.00,East,95,2.0,6.0,47,0.00,,,-99.99,,2013-05-29 01:32:00,
2013-05-28 20:41:00,57.0,37.0,-100.00,East,95,2.0,6.0,47,0.00,,,-99.99,,2013-05-29 01:41:00,
2013-05-28 21:02:00,54.0,36.0,-100.00,SSE,150,1.0,4.0,50,0.00,,,-99.99,,2013-05-29 02:02:00,
2013-05-28 21:12:00,54.0,36.0,-100.00,SSE,150,1.0,4.0,50,0.00,,,-99.99,,2013-05-29 02:12:00,
2013-05-28 21:21:00,54.0,36.0,-100.00,SSE,150,1.0,4.0,50,0.00,,,-99.99,,2013-05-29 02:21:00,
2013-05-28 21:32:00,54.0,36.0,-100.00,SSE,150,1.0,4.0,50,0.00,,,-99.99,,2013-05-29 02:32:00,
2013-05-28 21:42:00,54.0,36.0,-100.00,SSE,150,1.0,4.0,50,0.00,,,-99.99,,2013-05-29 02:42:00,
2013-05-28 21:43:00,54.0,37.0,-100.00,ESE,120,0.0,1.0,53,0.00,,,-99.99,,2013-05-29 02:43:00,
2013-05-28 22:02:00,54.0,37.0,-100.00,ESE,120,0.0,1.0,53,0.00,,,-99.99,,2013-05-29 03:02:00,
2013-05-28 22:12:00,54.0,37.0,-100.00,ESE,120,0.0,1.0,53,0.00,,,-99.99,,2013-05-29 03:12:00,
2013-05-28 22:21:00,54.0,37.0,-100.00,ESE,120,0.0,1.0,53,0.00,,,-99.99,,2013-05-29 03:21:00,
2013-05-28 22:33:00,54.0,37.0,-100.00,ESE,120,0.0,1.0,53,0.00,,,-99.99,,2013-05-29 03:33:00,
2013-05-28 22:42:00,53.0,37.0,-100.00,ESE,120,1.0,4.0,54,0.00,,,-99.99,,2013-05-29 03:42:00,
2013-05-28 23:02:00,53.0,37.0,-100.00,ESE,120,1.0,4.0,54,0.00,,,-99.99,,2013-05-29 04:02:00,
2013-05-28 23:13:00,53.0,37.0,-100.00,ESE,120,1.0,4.0,54,0.00,,,-99.99,,2013-05-29 04:13:00,
2013-05-28 23:23:00,53.0,37.0,-100.00,ESE,120,1.0,4.0,54,0.00,,,-99.99,,2013-05-29 04:23:00,
2013-05-28 23:33:00,53.0,37.0,-100.00,ESE,120,1.0,4.0,54,0.00,,,-99.99,,2013-05-29 04:33:00,
2013-05-28 23:42:00,52.0,36.0,-100.00,ESE,115,2.0,4.0,55,0.00,,,-99.99,,2013-05-29 04:42:00,